EN

Hourly Weather Lacznica

Today, 1 August, Sunday

Time Temperature Precipitation Wind Pressure Humidity
00:00 +17°C° 0 mm 3 mps 753 mmHg 73%
01:00 +17°C° 0 mm 3 mps 753 mmHg 77%
02:00 +16°C° 0 mm 3 mps 753 mmHg 79%
03:00 +16°C° 0 mm 3 mps 753 mmHg 82%
04:00 +16°C° 0 mm 3 mps 753 mmHg 84%
05:00 +16°C° 0 mm 3 mps 753 mmHg 80%
06:00 +17°C° 0 mm 3 mps 753 mmHg 77%
07:00 +18°C° 0 mm 3 mps 753 mmHg 73%
08:00 +19°C° 0 mm 3 mps 753 mmHg 69%
09:00 +20°C° 0 mm 3 mps 753 mmHg 65%
10:00 +21°C° 0 mm 3 mps 753 mmHg 61%
11:00 +22°C° 0 mm 3 mps 753 mmHg 55%
12:00 +25°C° 0 mm 3 mps 753 mmHg 50%
13:00 +26°C° 0 mm 4 mps 753 mmHg 45%
14:00 +25°C° 0 mm 3 mps 753 mmHg 46%
15:00 +25°C° 0 mm 3 mps 753 mmHg 48%
16:00 +24°C° 0 mm 3 mps 753 mmHg 49%
17:00 +22°C° 0 mm 3 mps 753 mmHg 54%
18:00 +21°C° 0 mm 2 mps 753 mmHg 58%
19:00 +21°C° 0 mm 1 mps 753 mmHg 62%
20:00 +21°C° 0 mm 1 mps 753 mmHg 64%
21:00 +20°C° 0 mm 1 mps 753 mmHg 67%
22:00 +19°C° 0 mm 1 mps 753 mmHg 69%
23:00 +19°C° 0 mm 1 mps 753 mmHg 72%

Tomorrow, 2 August, Monday

Time Temperature Precipitation Wind Pressure Humidity
00:00 +17°C° 0 mm 2 mps 753 mmHg 75%
01:00 +17°C° 0 mm 2 mps 753 mmHg 79%
02:00 +16°C° 0 mm 2 mps 753 mmHg 83%
03:00 +15°C° 0 mm 2 mps 754 mmHg 87%
04:00 +15°C° 0 mm 2 mps 754 mmHg 91%
05:00 +16°C° 0 mm 2 mps 754 mmHg 86%
06:00 +17°C° 0 mm 3 mps 754 mmHg 81%
07:00 +18°C° 0 mm 3 mps 755 mmHg 76%
08:00 +19°C° 0 mm 4 mps 755 mmHg 68%
09:00 +20°C° 0 mm 4 mps 755 mmHg 60%
10:00 +21°C° 0 mm 5 mps 755 mmHg 52%
11:00 +22°C° 0 mm 5 mps 755 mmHg 49%
12:00 +22°C° 0 mm 6 mps 755 mmHg 45%
13:00 +23°C° 0 mm 6 mps 755 mmHg 41%
14:00 +23°C° 0 mm 6 mps 755 mmHg 42%
15:00 +22°C° 0 mm 5 mps 755 mmHg 43%
16:00 +22°C° 0 mm 5 mps 756 mmHg 43%
17:00 +21°C° 0 mm 4 mps 756 mmHg 46%
18:00 +20°C° 0 mm 3 mps 756 mmHg 50%
19:00 +20°C° 0 mm 2 mps 756 mmHg 53%
20:00 +19°C° 0 mm 2 mps 756 mmHg 56%
21:00 +18°C° 0 mm 2 mps 756 mmHg 59%
22:00 +18°C° 0 mm 2 mps 757 mmHg 62%
23:00 +17°C° 0 mm 2 mps 757 mmHg 67%

Day after tomorrow, 3 August, Tuesday

Time Temperature Precipitation Wind Pressure Humidity
00:00 +16°C° 0 mm 2 mps 757 mmHg 72%
01:00 +15°C° 0 mm 2 mps 758 mmHg 78%
02:00 +14°C° 0 mm 2 mps 758 mmHg 81%
03:00 +13°C° 0 mm 2 mps 758 mmHg 85%
04:00 +13°C° 0 mm 2 mps 758 mmHg 89%
05:00 +14°C° 0 mm 2 mps 758 mmHg 81%
06:00 +16°C° 0 mm 2 mps 758 mmHg 74%
07:00 +17°C° 0 mm 2 mps 759 mmHg 66%
08:00 +19°C° 0 mm 3 mps 759 mmHg 59%
09:00 +21°C° 0 mm 3 mps 758 mmHg 52%
10:00 +22°C° 0 mm 3 mps 758 mmHg 45%
11:00 +24°C° 0 mm 3 mps 758 mmHg 43%
12:00 +25°C° 0 mm 3 mps 758 mmHg 41%
13:00 +25°C° 0 mm 3 mps 758 mmHg 38%
14:00 +25°C° 0 mm 3 mps 757 mmHg 38%
15:00 +26°C° 0 mm 2 mps 757 mmHg 39%
16:00 +26°C° 0 mm 2 mps 757 mmHg 39%
17:00 +24°C° 0.1 mm 2 mps 757 mmHg 47%
18:00 +23°C° 0.1 mm 1 mps 757 mmHg 55%
19:00 +21°C° 0.1 mm 1 mps 757 mmHg 64%
20:00 +20°C° 0.5 mm 1 mps 757 mmHg 69%
21:00 +19°C° 0.5 mm 1 mps 757 mmHg 74%
22:00 +18°C° 0.5 mm 1 mps 757 mmHg 79%
23:00 +18°C° 0.7 mm 1 mps 757 mmHg 83%

4 August, Wednesday

Time Temperature Precipitation Wind Pressure Humidity
00:00 +18°C° 0.7 mm 1 mps 757 mmHg 87%
01:00 +18°C° 0.7 mm 1 mps 757 mmHg 91%
02:00 +16°C° 0 mm 1 mps 757 mmHg 92%
03:00 +16°C° 0 mm 1 mps 757 mmHg 92%
04:00 +16°C° 0 mm 1 mps 757 mmHg 93%
05:00 +18°C° 0 mm 1 mps 757 mmHg 90%
06:00 +18°C° 0 mm 1 mps 757 mmHg 88%
07:00 +19°C° 0 mm 1 mps 757 mmHg 85%
08:00 +20°C° 0 mm 1 mps 757 mmHg 81%
09:00 +21°C° 0 mm 1 mps 757 mmHg 76%
10:00 +22°C° 0 mm 1 mps 757 mmHg 72%
11:00 +23°C° 0.1 mm 1 mps 757 mmHg 67%
12:00 +24°C° 0.1 mm 1 mps 757 mmHg 62%
13:00 +25°C° 0.1 mm 1 mps 756 mmHg 57%
14:00 +25°C° 0.4 mm 1 mps 756 mmHg 57%
15:00 +25°C° 0.4 mm 1 mps 756 mmHg 56%
16:00 +25°C° 0.4 mm 1 mps 756 mmHg 56%
17:00 +24°C° 0.5 mm 1 mps 756 mmHg 63%
18:00 +23°C° 0.5 mm 1 mps 756 mmHg 70%
19:00 +21°C° 0.5 mm 1 mps 756 mmHg 76%
20:00 +20°C° 0.2 mm 1 mps 756 mmHg 79%
21:00 +20°C° 0.2 mm 1 mps 756 mmHg 83%
22:00 +19°C° 0.2 mm 1 mps 756 mmHg 86%
23:00 +18°C° 0.1 mm 1 mps 756 mmHg 87%

5 August, Thursday

Time Temperature Precipitation Wind Pressure Humidity
00:00 +18°C° 0.1 mm 1 mps 756 mmHg 89%
01:00 +18°C° 0.1 mm 1 mps 756 mmHg 90%
02:00 +16°C° 0 mm 1 mps 756 mmHg 91%
03:00 +16°C° 0 mm 1 mps 756 mmHg 92%
04:00 +16°C° 0 mm 1 mps 755 mmHg 94%
05:00 +18°C° 0 mm 1 mps 755 mmHg 91%
06:00 +17°C° 0 mm 2 mps 755 mmHg 88%
07:00 +18°C° 0 mm 2 mps 755 mmHg 86%
08:00 +20°C° 0 mm 2 mps 755 mmHg 78%
09:00 +21°C° 0 mm 2 mps 755 mmHg 70%
10:00 +24°C° 0 mm 3 mps 755 mmHg 62%
11:00 +24°C° 0.2 mm 3 mps 755 mmHg 60%
12:00 +24°C° 0.2 mm 3 mps 754 mmHg 57%
13:00 +25°C° 0.2 mm 3 mps 754 mmHg 55%
14:00 +25°C° 0.2 mm 3 mps 754 mmHg 55%
15:00 +25°C° 0.2 mm 3 mps 753 mmHg 56%
16:00 +24°C° 0.2 mm 3 mps 753 mmHg 56%
17:00 +22°C° 0.3 mm 3 mps 753 mmHg 64%
18:00 +21°C° 0.3 mm 3 mps 753 mmHg 71%
19:00 +20°C° 0.3 mm 2 mps 753 mmHg 79%
20:00 +19°C° 0.1 mm 2 mps 752 mmHg 82%
21:00 +18°C° 0.1 mm 2 mps 752 mmHg 86%
22:00 +17°C° 0.1 mm 2 mps 752 mmHg 89%
23:00 +17°C° 0 mm 2 mps 752 mmHg 90%

6 August, Friday

Time Temperature Precipitation Wind Pressure Humidity
00:00 +16°C° 0 mm 2 mps 752 mmHg 91%
01:00 +16°C° 0 mm 2 mps 752 mmHg 93%
02:00 +16°C° 0 mm 2 mps 752 mmHg 93%
03:00 +15°C° 0 mm 2 mps 752 mmHg 94%
04:00 +15°C° 0 mm 2 mps 751 mmHg 95%
05:00 +16°C° 0 mm 2 mps 751 mmHg 90%
06:00 +17°C° 0 mm 2 mps 751 mmHg 85%
07:00 +18°C° 0 mm 3 mps 751 mmHg 80%
08:00 +19°C° 0 mm 3 mps 751 mmHg 72%
09:00 +21°C° 0 mm 3 mps 751 mmHg 64%
10:00 +22°C° 0 mm 4 mps 751 mmHg 56%
11:00 +23°C° 0.2 mm 4 mps 751 mmHg 54%
12:00 +23°C° 0.2 mm 4 mps 751 mmHg 52%
13:00 +25°C° 0.2 mm 5 mps 751 mmHg 50%
14:00 +23°C° 0.1 mm 5 mps 751 mmHg 50%
15:00 +23°C° 0.1 mm 4 mps 751 mmHg 50%
16:00 +23°C° 0.1 mm 4 mps 751 mmHg 50%
17:00 +22°C° 0 mm 4 mps 751 mmHg 55%
18:00 +21°C° 0 mm 3 mps 751 mmHg 60%
19:00 +20°C° 0 mm 2 mps 751 mmHg 66%
20:00 +19°C° 0 mm 2 mps 751 mmHg 71%
21:00 +18°C° 0 mm 2 mps 751 mmHg 77%
22:00 +17°C° 0 mm 2 mps 751 mmHg 83%
23:00 +16°C° 0 mm 3 mps 752 mmHg 85%
Show more